Temp_Advection
nan nan nan nan nan nan nan nan nan nan nan nan nan nan nan nan nan nan nan nan nan nan nan nan nan nan nan nan nan nan nan nan nan nan nan nan nan nan nan nan nan nan nan nan nan
nan -0 -0 0 0 0 -0 -0 0 0 0 0 -0 -0 -0 -0 0 -0 -0 0 0 0 0 -0 -0 0 0 0 0 0 -0 0 -0 -1 -0 -0 -0 -0 -0 -0 -1 -0 -0 -0 nan
nan -0 -0 -0 -0 -0 -0 0 0 0 0 -0 -0 -0 0 -0 -0 -0 0 0 0 0 -0 -0 0 0 0 -0 0 -0 -0 0 -0 -0 -0 -0 -0 -0 -0 -0 -0 -0 -0 -0 nan
nan -0 -0 -0 -0 -0 -0 -0 0 0 -0 -0 -0 -0 -0 -0 -0 0 0 0 -0 -0 -0 0 0 0 -0 -0 -0 -0 0 -0 -0 -0 -0 -0 -0 -0 -0 -0 -0 -0 -0 -0 nan
nan 0 0 0 0 0 -0 -0 0 -0 -0 -0 -0 -0 -0 -0 -0 0 -0 -0 -0 -0 0 0 -0 -0 -0 0 -0 -0 -0 -0 -0 -0 -0 0 -0 -0 -0 0 -0 -0 -0 -0 nan
nan 0 0 0 0 -0 -0 0 0 0 -0 -0 0 0 -0 -0 0 0 -0 -0 -0 -0 -0 -0 -0 -0 -0 -0 -0 -0 -0 -0 -0 -0 0 -0 0 -0 0 0 -0 -0 -0 -0 nan
nan 0 0 0 0 -0 0 0 0 0 0 0 -0 0 -0 -0 0 -0 -0 -0 -0 -0 -0 -0 0 0 -0 -0 0 0 0 0 -0 -0 0 0 0 -0 0 -0 -0 -0 -0 0 nan
nan 0 0 0 0 0 0 0 0 0 0 0 0 -0 -0 0 -0 -0 -0 -0 -0 -0 0 -0 -0 -0 -0 0 -0 -0 0 0 -0 -0 -0 -0 0 -0 -0 -0 -0 -0 -0 -0 nan
nan 0 0 0 0 0 -0 0 0 0 0 0 -0 -0 -0 -0 -0 0 -0 0 0 0 0 0 -0 -0 0 0 0 0 -0 -0 0 0 -0 0 0 -0 -0 -0 0 -0 0 0 nan
nan 0 0 0 0 0 -0 0 0 0 -0 -0 -0 -0 -0 -0 0 0 0 0 0 0 -0 0 0 0 -0 -0 -0 -0 -0 -0 -0 0 0 0 -0 0 0 0 0 0 -0 0 nan
nan 0 0 0 0 0 -0 -0 -0 -0 -1 -0 -0 -0 -0 0 0 0 0 0 0 0 0 -0 -1 -0 0 0 0 0 0 -0 0 -0 0 0 -0 0 -1 0 0 0 0 0 nan
nan -0 -0 -0 -0 -0 0 0 0 -0 -0 0 0 -0 -0 -0 -0 -0 -0 -0 -0 -0 -0 0 -0 0 0 0 0 -0 0 -0 -0 -0 0 0 -0 0 -0 -0 0 0 0 0 nan
nan 0 -0 -0 -0 -0 -0 -0 0 0 -0 -0 0 0 -0 -0 -0 -0 -0 -0 -0 -0 -0 -0 0 -0 0 0 -0 -0 -0 -0 -0 -1 -0 0 -0 -0 -0 -0 -0 0 0 0 nan
nan -0 -0 -0 -0 -0 -0 0 0 0 0 0 0 0 0 0 -0 0 -0 0 0 -0 -0 0 -0 -0 -0 -0 -0 -0 -0 0 0 -0 -0 -0 -0 0 -0 0 -0 -0 -0 0 nan
nan -0 -0 -0 -0 -0 -0 0 0 0 -0 0 -0 -0 0 0 0 0 0 0 -0 -0 0 0 -0 -0 -0 -0 0 0 -0 0 0 0 -0 -0 -0 0 -0 -0 -0 -0 -0 0 nan
nan -0 -0 -0 -0 0 0 0 0 -0 -0 0 -0 -0 -0 -0 -0 0 0 -0 -0 -0 0 -0 -0 0 -0 -0 0 0 -0 -0 0 0 -0 0 -0 -0 -0 0 -0 -0 -0 0 nan
nan -0 -0 -0 -0 0 0 0 0 0 -0 -0 -0 -0 -0 -0 -0 -0 -0 -0 -0 -0 -0 -0 -0 -0 0 -0 0 -0 0 -0 -0 -0 -0 0 0 -0 0 -0 -0 0 -0 0 nan
nan 0 0 0 0 0 -0 -0 0 -0 -0 0 -0 0 0 0 0 -0 -0 -0 -0 0 0 -0 -0 0 -0 -0 0 -0 0 -0 -0 0 -0 0 -0 -0 -0 0 -0 -0 0 0 nan
nan -0 0 0 0 0 -0 -0 -0 -0 -0 -0 -0 -0 -0 -0 -0 -0 -0 -0 -0 -0 0 0 -0 -0 -0 -0 -0 0 -0 0 0 0 0 -0 -0 -0 -0 -0 0 0 0 1 nan
nan -0 -0 0 0 0 -0 -0 -0 -0 -0 -0 -0 -0 -0 -0 0 -0 -0 -0 -0 0 0 -0 -0 0 -0 0 -0 0 0 0 0 -0 -0 -0 -0 0 -0 0 -0 -0 -0 0 nan
nan -0 -0 0 -0 0 -0 -0 -0 -0 -0 -0 -0 -0 -0 -0 -0 -0 -0 -0 -0 -0 -0 -0 -0 -0 0 0 0 0 -0 -0 0 0 0 -0 -0 -0 0 -0 -0 -1 -1 0 nan
nan -0 -0 -0 -0 -0 -0 -0 -0 -0 -0 -0 -0 -0 -0 -0 -0 -0 -0 -0 -0 -0 0 -0 0 -0 -0 -0 -0 0 -0 0 0 -0 0 -0 -1 -0 0 0 0 0 0 0 nan
nan -0 -0 -0 -0 -0 -0 -0 0 0 -0 0 0 -0 -0 0 -0 0 0 -0 0 0 -0 -0 0 -0 -0 -0 -0 -0 0 0 0 -0 0 -0 -1 0 -0 0 0 0 0 0 nan
nan -0 -0 -0 -0 -0 -0 -0 -0 0 -0 0 -0 0 -0 0 -0 -0 0 -0 0 0 0 -0 0 -0 -0 -0 0 -0 -0 -0 1 0 -0 -1 -1 -1 0 -0 -1 -1 -1 -1 nan
nan 0 -0 -0 0 -0 -0 -0 0 -0 0 -0 0 -0 -0 -0 0 0 -0 0 0 0 0 0 0 -0 -0 -0 0 0 -0 0 0 -0 -0 -0 -0 -1 0 -0 -0 -0 -1 -1 nan
nan 0 -0 0 0 0 -0 -0 0 -0 -0 -0 -0 -0 0 0 0 0 -0 -0 0 0 0 0 0 -0 -0 -1 0 0 -1 -0 -0 0 -0 0 -0 -0 -0 -0 -1 -1 -1 -1 nan
nan nan nan nan nan nan nan nan nan nan nan nan nan nan nan nan nan nan nan nan nan nan nan nan nan nan nan nan nan nan nan nan nan nan nan nan nan nan nan nan nan nan nan nan nan
Wind_Speed
20 19 17 14 17 17 13 11 7 4 3 1 0 4 8 13 16 11 15 16 16 14 11 13 7 7 5 7 7 7 3 4 5 4 6 5 2 6 3 8 11 9 9 11 18
22 20 18 15 14 16 13 10 9 5 3 1 2 5 6 7 7 17 18 14 12 11 12 11 9 10 5 4 5 5 3 6 8 9 6 7 7 7 3 4 11 9 10 14 17
23 22 20 17 14 14 11 10 8 6 3 3 4 5 4 5 5 11 16 12 10 9 11 11 8 6 3 6 8 6 4 6 7 9 7 6 6 4 8 5 3 8 14 17 18
22 23 21 16 16 15 10 8 6 6 5 6 7 7 7 9 4 13 13 11 9 12 12 9 7 5 3 6 4 4 7 6 5 4 2 1 4 3 2 2 2 7 9 12 16
22 22 22 18 17 15 7 6 6 7 8 9 9 11 8 9 6 13 11 11 9 10 13 9 12 9 6 5 7 7 4 4 4 2 1 1 1 3 5 3 2 5 7 11 15
22 21 22 21 23 12 7 7 7 8 10 11 9 7 7 6 7 12 11 10 9 8 11 12 5 6 5 7 6 4 2 5 3 2 1 4 3 2 7 5 2 3 6 10 14
21 19 20 20 20 12 9 9 8 8 8 10 11 12 13 6 8 14 12 10 10 8 6 9 9 6 5 4 1 3 4 6 10 7 1 1 7 8 8 5 3 2 4 7 13
20 18 18 19 16 10 9 10 11 13 12 8 8 8 5 8 10 13 12 5 9 7 6 6 6 5 4 1 4 4 4 3 7 8 4 2 7 11 10 6 5 0 3 6 12
19 17 17 16 15 10 10 11 11 8 8 7 8 5 4 9 13 15 14 8 7 7 7 5 3 0 2 4 3 4 5 9 1 11 6 6 6 12 11 10 7 3 1 5 7
18 17 15 12 13 8 10 13 11 6 4 4 8 3 8 5 14 19 13 8 5 5 4 3 3 0 6 6 4 8 6 8 7 4 4 7 11 12 19 13 8 5 1 4 6
16 15 13 8 11 3 7 3 3 4 16 8 5 4 4 5 8 19 14 8 7 3 4 4 5 6 7 6 6 6 8 9 6 5 2 7 9 9 16 13 10 7 4 1 4
16 16 13 7 12 8 5 2 2 8 7 7 9 7 6 6 5 18 13 5 6 5 8 0 5 4 5 5 6 9 8 7 3 3 8 7 14 11 16 12 11 11 7 5 3
16 15 14 8 6 8 6 6 10 7 1 3 5 6 6 5 3 13 16 5 4 6 7 4 3 4 5 6 8 8 6 7 7 12 9 6 2 3 6 10 6 5 8 6 5
16 16 14 9 4 10 8 3 5 2 3 4 3 5 6 3 2 12 14 5 1 4 6 3 3 4 7 3 6 4 5 7 8 7 4 5 4 3 5 6 9 12 12 10 7
16 16 13 10 6 10 8 2 6 2 2 3 3 5 6 4 7 7 10 4 4 5 3 1 3 4 6 3 4 7 9 9 3 4 6 1 1 3 6 7 9 16 17 12 9
17 15 11 11 9 11 6 5 5 2 3 2 2 5 3 7 2 9 6 7 3 3 5 1 2 1 4 7 6 10 10 9 5 1 1 3 3 5 4 2 3 13 17 13 9
17 14 10 12 11 9 2 3 2 4 3 2 3 4 6 4 2 5 2 6 5 6 5 5 4 4 2 6 2 8 7 4 4 2 4 4 1 9 5 3 3 2 15 12 11
16 12 10 14 12 7 2 0 3 1 4 2 2 6 2 5 2 5 6 3 8 6 4 4 4 3 3 3 3 5 3 2 4 3 6 5 5 5 5 3 0 2 11 13 14
15 11 9 17 10 6 3 4 2 4 2 5 3 4 3 3 2 4 4 3 4 7 5 6 3 3 3 1 2 3 2 1 4 6 2 5 6 2 3 3 3 5 9 14 16
14 9 6 13 7 4 1 3 2 2 2 2 3 1 3 6 5 6 2 2 3 4 6 2 6 2 3 2 2 2 2 1 2 4 5 5 6 4 4 5 6 8 14 17 17
11 5 5 10 6 4 3 3 3 2 1 3 3 3 2 3 3 4 1 3 0 3 3 1 2 5 1 5 2 2 2 3 1 2 3 5 5 3 4 3 6 15 17 18 18
5 3 7 6 2 2 2 3 1 2 1 1 2 2 3 4 4 2 2 2 5 0 2 2 3 4 7 5 5 3 3 3 1 3 3 4 7 8 7 2 3 7 7 15 17
4 4 4 3 2 3 2 3 1 3 3 1 1 0 3 2 3 4 3 4 4 2 3 3 2 4 1 1 3 2 4 5 6 3 5 3 6 2 6 3 7 12 15 11 13
3 2 1 4 3 3 2 2 3 2 2 2 1 0 1 4 7 4 2 3 4 4 2 3 4 6 7 6 8 8 12 8 9 5 6 14 19 21 15 13 17 16 14 14 12
2 0 1 1 2 2 0 2 3 3 3 4 3 6 4 4 5 6 6 3 10 10 6 3 5 9 13 12 12 17 21 17 14 18 11 23 17 24 14 4 7 11 14 16 14
2 2 1 1 1 3 3 5 5 3 4 4 5 3 7 5 6 10 8 5 5 6 4 4 4 2 5 13 15 13 20 20 16 18 17 24 22 15 2 9 15 18 20 15 11
7 7 3 6 5 3 5 5 6 5 8 8 6 5 7 8 11 13 15 14 15 7 5 5 2 0 9 2 5 10 11 4 6 6 6 6 7 4 7 10 13 20 15 14 11
Wind_Direction
18 17 14 8 10 11 11 18 14 356 338 295 215 111 95 69 48 29 22 4 360 6 11 359 6 4 20 16 10 327 287 65 46 26 80 94 260 72 18 75 67 63 30 333 332
15 14 14 11 7 7 8 7 7 5 4 39 142 139 134 60 76 16 7 359 3 10 23 33 13 6 36 36 3 357 20 43 22 27 55 60 10 36 285 132 43 3 349 349 346
13 12 10 7 6 4 4 6 13 19 29 63 116 136 143 30 77 355 355 2 16 22 27 23 6 357 13 67 8 4 71 99 58 50 24 75 100 44 343 89 42 348 353 355 345
10 10 10 12 7 4 3 12 28 39 67 94 109 109 87 37 53 341 358 8 25 33 24 11 359 21 54 40 31 115 36 45 110 64 38 126 79 129 64 120 13 8 360 355 353
8 8 9 7 2 352 6 31 54 68 87 98 101 107 89 70 36 359 8 19 27 35 30 24 35 358 40 42 7 81 98 81 92 89 55 104 173 326 191 193 59 24 2 1 3
6 7 8 6 0 18 55 68 74 84 98 99 99 71 53 77 16 5 14 17 23 41 27 47 40 21 58 32 23 7 117 122 180 185 214 273 241 141 189 181 132 26 18 2 8
4 7 8 8 15 50 67 75 82 94 106 95 93 86 67 64 23 15 5 11 23 30 38 48 55 51 326 128 29 154 208 192 198 203 274 312 256 223 181 163 177 46 30 2 12
5 8 10 13 23 46 67 78 93 97 101 87 73 71 74 31 24 359 11 23 357 27 29 29 44 53 57 162 207 247 217 268 128 185 149 150 285 113 152 171 185 90 15 14 8
4 9 12 18 23 57 91 89 97 98 87 62 57 55 52 19 12 4 7 10 16 8 17 19 54 7 230 251 232 229 347 354 120 181 146 205 285 142 177 190 195 178 346 353 358
9 12 13 23 29 82 93 93 86 84 66 38 51 96 24 357 17 9 2 19 17 4 324 346 283 262 25 15 19 331 342 326 305 125 214 250 254 259 192 186 193 170 163 312 342
10 11 16 27 29 134 130 101 75 73 69 67 50 77 10 354 9 1 9 11 329 288 19 10 49 30 4 7 339 301 288 286 354 94 324 259 277 280 155 175 175 182 177 270 329
13 13 17 23 26 28 231 253 157 135 86 64 58 41 30 21 10 357 17 29 344 22 339 184 72 27 326 269 280 297 310 1 331 352 304 285 284 277 169 176 189 174 192 209 233
8 9 8 17 32 30 59 113 135 135 118 51 50 31 16 37 31 358 7 352 7 18 355 49 52 313 291 314 357 332 31 345 302 318 271 322 320 106 86 135 135 211 211 222 231
2 3 6 14 40 18 32 172 162 176 183 22 39 4 0 2 212 1 8 14 197 16 340 59 127 325 309 357 14 301 33 333 316 347 308 14 293 171 161 199 189 208 210 216 234
358 0 8 30 28 16 359 112 173 155 44 30 18 350 3 51 333 358 2 19 41 331 326 322 15 351 318 24 350 268 332 283 253 299 305 4 259 234 166 223 207 202 197 205 229
354 358 15 16 13 5 19 118 137 53 296 58 343 351 336 44 46 350 359 359 325 288 215 176 117 298 336 301 254 279 295 291 155 205 314 127 91 280 193 89 32 179 179 190 224
353 355 7 10 356 357 48 126 36 76 194 53 339 345 308 4 2 6 24 47 29 3 6 315 134 114 308 318 167 345 342 347 359 335 242 147 330 246 132 92 26 345 166 192 223
349 349 358 2 0 6 120 264 58 123 47 171 258 283 5 358 119 324 343 81 49 346 280 351 332 30 5 54 300 299 349 88 305 325 291 203 242 276 105 118 349 326 186 208 227
345 342 349 360 1 7 70 58 34 31 352 344 243 279 146 159 239 309 88 50 50 12 21 357 295 160 90 15 18 346 41 23 274 268 242 247 250 88 141 186 201 208 197 214 233
345 341 357 354 2 6 48 101 111 62 331 242 344 322 320 8 337 7 42 89 116 22 348 17 299 24 135 195 227 264 345 317 271 301 299 274 294 288 229 234 198 219 229 237 238
344 351 336 347 4 14 54 65 104 95 36 331 357 300 334 345 330 313 15 113 142 131 311 344 194 291 217 202 188 184 239 215 272 269 270 309 261 179 45 63 194 213 231 241 241
354 299 330 347 14 8 73 28 57 132 264 245 285 317 326 347 297 286 299 60 118 67 292 63 304 282 255 60 58 25 306 318 267 303 259 301 272 245 116 197 252 284 265 242 242
346 282 330 352 341 101 134 114 258 188 213 201 259 295 45 294 304 222 322 129 161 266 335 121 230 302 262 82 25 237 185 237 298 326 230 279 266 54 140 217 260 258 274 281 241
346 301 346 35 63 342 166 165 180 222 275 243 310 165 236 246 218 277 261 132 174 215 190 122 241 217 247 287 327 290 282 266 263 254 240 242 272 283 303 341 20 11 10 351 281
298 228 250 341 103 69 7 45 203 201 221 215 221 235 223 274 267 231 237 225 203 198 181 203 251 239 260 277 276 271 278 273 245 250 250 268 267 276 303 50 14 359 348 341 335
243 247 240 174 212 251 142 211 217 156 199 194 229 295 214 234 256 300 315 312 260 167 203 158 261 3 272 263 257 270 266 270 247 252 254 262 271 284 301 23 8 349 331 336 331
251 242 225 177 179 189 205 204 206 163 226 239 232 276 258 260 287 290 286 278 262 264 213 161 234 180 284 360 352 280 259 195 195 209 211 229 258 16 46 27 2 330 327 335 328
Height
1547 1545 1542 1540 1537 1535 1532 1530 1529 1528 1528 1528 1529 1530 1531 1531 1531 1530 1528 1530 1527 1525 1523 1522 1522 1522 1521 1521 1521 1519 1520 1522 1524 1523 1529 1531 1531 1534 1536 1536 1538 1539 1541 1541 1537
1548 1545 1542 1540 1537 1535 1532 1530 1529 1528 1528 1528 1529 1531 1532 1532 1533 1530 1532 1530 1529 1526 1524 1523 1523 1521 1521 1522 1522 1520 1523 1527 1528 1529 1530 1533 1534 1535 1536 1536 1538 1539 1539 1538 1535
1549 1545 1542 1539 1536 1534 1532 1530 1529 1528 1528 1529 1530 1531 1533 1533 1534 1535 1533 1531 1529 1527 1526 1524 1523 1522 1521 1522 1522 1521 1526 1527 1530 1532 1532 1534 1536 1537 1536 1537 1540 1540 1540 1538 1534
1549 1545 1542 1539 1536 1533 1531 1530 1529 1529 1529 1530 1531 1533 1534 1534 1540 1537 1534 1532 1530 1528 1527 1525 1524 1524 1524 1525 1525 1528 1529 1529 1532 1533 1534 1533 1535 1536 1537 1538 1539 1541 1540 1537 1533
1549 1546 1542 1539 1536 1532 1531 1530 1530 1530 1531 1532 1533 1535 1535 1537 1541 1538 1535 1533 1531 1530 1528 1527 1527 1526 1526 1527 1527 1528 1530 1532 1533 1534 1534 1534 1534 1535 1535 1536 1538 1539 1537 1535 1533
1550 1546 1542 1539 1535 1531 1531 1531 1532 1532 1533 1535 1536 1536 1537 1540 1540 1538 1535 1534 1532 1531 1530 1528 1529 1529 1529 1530 1530 1531 1531 1532 1534 1535 1536 1536 1534 1535 1533 1534 1537 1537 1536 1535 1533
1550 1547 1543 1540 1536 1534 1533 1533 1534 1535 1536 1537 1537 1538 1538 1543 1540 1538 1536 1534 1533 1533 1531 1530 1529 1529 1529 1530 1531 1530 1532 1531 1531 1533 1534 1535 1533 1531 1531 1533 1534 1535 1535 1533 1531
1551 1547 1544 1541 1538 1537 1536 1536 1536 1537 1538 1539 1539 1539 1541 1541 1540 1539 1537 1536 1534 1533 1532 1531 1531 1531 1531 1532 1530 1530 1528 1529 1527 1530 1533 1535 1533 1525 1529 1532 1533 1534 1534 1533 1531
1551 1548 1546 1543 1540 1538 1538 1538 1538 1539 1540 1540 1540 1540 1543 1543 1541 1540 1537 1536 1534 1533 1533 1532 1531 1531 1531 1529 1530 1529 1536 1531 1527 1528 1531 1534 1530 1527 1528 1529 1530 1531 1532 1532 1530
1551 1549 1547 1545 1543 1541 1541 1541 1541 1541 1541 1541 1541 1545 1545 1545 1543 1540 1538 1536 1535 1534 1534 1532 1531 1531 1532 1534 1548 1544 1541 1535 1530 1529 1528 1531 1528 1523 1522 1525 1528 1529 1530 1530 1529
1551 1549 1547 1545 1544 1543 1542 1542 1545 1545 1543 1545 1546 1546 1546 1545 1544 1542 1538 1537 1535 1534 1535 1534 1539 1545 1542 1540 1540 1539 1538 1534 1526 1527 1529 1527 1523 1519 1520 1522 1524 1527 1528 1529 1529
1552 1549 1547 1546 1545 1543 1542 1542 1543 1546 1548 1547 1547 1546 1546 1545 1545 1543 1539 1539 1536 1537 1534 1537 1545 1542 1540 1538 1538 1536 1534 1535 1527 1525 1527 1520 1514 1511 1514 1519 1521 1523 1525 1527 1527
1552 1550 1548 1546 1545 1544 1542 1543 1544 1545 1547 1550 1548 1548 1548 1547 1546 1544 1542 1540 1540 1538 1539 1539 1543 1540 1539 1537 1539 1537 1539 1541 1541 1530 1520 1520 1514 1513 1518 1519 1521 1522 1524 1525 1525
1553 1551 1548 1546 1547 1544 1543 1544 1544 1546 1548 1553 1551 1550 1550 1547 1547 1545 1543 1544 1540 1542 1541 1541 1541 1541 1540 1538 1542 1542 1534 1537 1537 1540 1541 1522 1542 1512 1517 1519 1519 1520 1521 1523 1524
1554 1551 1549 1547 1546 1545 1545 1543 1544 1546 1564 1554 1553 1551 1549 1549 1549 1547 1545 1543 1544 1543 1544 1544 1542 1543 1542 1543 1543 1540 1533 1534 1533 1539 1538 1527 1536 1510 1512 1514 1513 1515 1518 1521 1523
1555 1552 1550 1548 1547 1546 1544 1543 1546 1552 1580 1555 1554 1552 1549 1549 1549 1548 1546 1545 1545 1543 1541 1541 1543 1544 1544 1541 1540 1538 1533 1523 1528 1536 1547 1525 1533 1524 1511 1507 1508 1512 1516 1520 1522
1555 1553 1551 1549 1548 1545 1544 1546 1550 1560 1555 1558 1557 1554 1553 1552 1549 1548 1548 1550 1553 1555 1549 1540 1542 1544 1544 1542 1539 1540 1539 1545 1547 1548 1539 1525 1536 1520 1509 1510 1512 1514 1516 1519 1520
1555 1553 1552 1549 1547 1545 1545 1548 1555 1556 1556 1558 1556 1554 1554 1554 1551 1549 1547 1550 1552 1552 1554 1556 1559 1544 1545 1547 1549 1545 1544 1555 1556 1547 1542 1526 1535 1512 1509 1511 1512 1513 1514 1516 1517
1555 1553 1552 1549 1547 1546 1546 1555 1562 1558 1560 1559 1555 1554 1552 1552 1553 1548 1551 1555 1558 1557 1561 1559 1548 1544 1544 1545 1548 1543 1547 1546 1549 1539 1544 1531 1508 1510 1511 1512 1512 1512 1514 1514 1515
1555 1552 1552 1551 1548 1547 1547 1556 1557 1559 1559 1559 1557 1556 1555 1553 1553 1550 1550 1556 1558 1559 1558 1557 1564 1542 1543 1544 1545 1546 1546 1551 1554 1549 1542 1522 1512 1517 1509 1508 1511 1512 1511 1511 1512
1555 1553 1553 1551 1550 1549 1554 1558 1559 1561 1561 1561 1558 1557 1554 1557 1556 1553 1552 1557 1557 1558 1558 1557 1559 1549 1543 1545 1541 1548 1547 1547 1546 1545 1549 1542 1525 1502 1504 1503 1504 1503 1504 1506 1508
1555 1555 1553 1551 1552 1551 1555 1558 1561 1561 1562 1561 1560 1559 1558 1558 1558 1555 1554 1553 1556 1557 1556 1558 1559 1562 1544 1543 1541 1543 1545 1544 1552 1544 1544 1544 1523 1496 1499 1502 1502 1503 1502 1501 1502
1557 1555 1553 1552 1553 1555 1559 1560 1560 1560 1560 1561 1560 1561 1561 1560 1562 1553 1553 1555 1556 1557 1556 1558 1559 1565 1542 1547 1546 1546 1543 1545 1545 1545 1549 1552 1523 1498 1499 1502 1502 1501 1500 1500 1499
1558 1556 1554 1553 1553 1554 1556 1556 1558 1560 1560 1560 1560 1560 1560 1559 1556 1555 1553 1554 1556 1558 1557 1558 1556 1555 1555 1543 1545 1546 1539 1541 1541 1548 1537 1528 1511 1503 1501 1503 1503 1504 1501 1500 1498
1558 1555 1555 1553 1555 1555 1557 1556 1556 1558 1560 1560 1559 1559 1558 1558 1553 1553 1549 1551 1551 1552 1555 1557 1555 1550 1544 1541 1542 1539 1534 1531 1535 1527 1533 1509 1515 1498 1503 1504 1502 1501 1501 1500 1499
1557 1557 1556 1555 1555 1555 1556 1555 1554 1554 1556 1557 1558 1554 1555 1556 1553 1553 1550 1551 1551 1553 1553 1554 1554 1552 1551 1541 1536 1533 1522 1517 1518 1517 1516 1508 1506 1500 1501 1501 1502 1501 1500 1498 1496
1553 1554 1554 1552 1552 1553 1550 1548 1551 1552 1551 1551 1553 1554 1553 1552 1550 1549 1548 1547 1546 1548 1550 1555 1556 1555 1537 1536 1539 1533 1508 1505 1506 1503 1504 1509 1499 1498 1502 1503 1503 1502 1500 1497 1496